www.pogodaiklimat.ru

Погода и климат >> Архив погоды >> Россия >> Саратовская область >> Октябрьский Городок


ПОГОДА в Октябрьском Городке

  • Прогноз погоды в Октябрьском Городке
  • Монитор погоды в Октябрьском Городке

АРХИВ ПОГОДЫ в Октябрьском Городке

Время (UTC), дата Ветер
(напр.,м/с)
 
Видим.   Явления Облачность Т
(С)
Тd
(С)
f
(%)
Тe
(С)
Тes
(С)
Комфортность P
(гПа)
Po
(гПа)
Тmin
(С)
Tmax
(С)
R
(мм)
R24
(мм)
S
(см)
06 19.06 СЗ 4 20 км 3/0
[Ci sp]
+24.6 +13.7 51 +27 +34 жарко 1011.6 988.5
09 19.06 СЗ 5 20 км 3/3 1000 м
[Cu med, cong]
+27.9 +9.4 31 +28 +34 жарко 1011.4 988.5
12 19.06 СЗ 4 20 км 5/5 1000 м
[Cu med, cong]
+28.9 +9.5 30 +29 +33 жарко 1010.9 988.1
15 19.06 С 4
{10}
20 км 3/3 1000 м
[Cu med, cong]
+27.9 +8.4 29 +28 +29 жарко 1011.3 988.4 +29.5
18 19.06 С 2 20 км ясно +21.1 +11.3 54 +23 +23 комфорт 1013.0 989.6
21 19.06 штиль 0 20 км ясно +17.4 +11.3 67 +17 +17 1014.4 990.6
00 20.06 З 1 20 км ясно +13.8 +10.2 79 +14 +14 1015.5 991.4
03 20.06 З 1 20 км ясно +16.0 +11.3 74 +17 +19 1016.0 992.1 +12.6
06 20.06 С 4 20 км 4/4 600 м
[Cu med, cong]
+26.6 +11.0 38 +28 +32 жарко 1015.6 992.5
09 20.06 СВ 3
{10}
20 км 6/6 600 м
[Cu med, cong]
+28.3 +9.3 30 +28 +34 жарко 1015.2 992.3
12 20.06 С 4 20 км 8/8 600 м
[Cu med, cong]
+29.5 +9.1 28 +29 +31 жарко 1014.5 991.6
15 20.06 С 3 20 км 6/3 600 м
[Cu med, cong Ci fib]
+29.7 +8.2 26 +29 +30 жарко 1014.2 991.4 +30.5
18 20.06 С 3 20 км ясно +22.7 +10.4 46 +25 +25 комфорт 1015.8 992.4
21 20.06 С 1 20 км ясно +19.8 +9.5 51 +22 +22 комфорт 1016.8 993.2
00 21.06 З 1 20 км ясно +15.5 +9.9 69 +16 +16 1017.8 993.8
03 21.06 штиль 0 20 км ясно +17.5 +11.0 66 +18 +21 1018.9 995.0 +13.8
06 21.06 В 2 20 км ясно +28.8 +6.5 24 +28 +39 жарко 1018.1 995.1
09 21.06 СВ 3 20 км 6/0
[Ac trans Ci fib]
+29.8 +9.0 27 +29 +40 жарко 1017.8 994.9
12 21.06 С 2 20 км 4/0
[Ac trans]
+31.6 +7.7 23 +30 +39 жарко 1017.1 994.3
15 21.06 СВ 2 20 км 3/0
[Ac trans Ci fib]
+30.3 +7.3 24 +29 +31 жарко 1016.8 994.0 +31.9
18 21.06 Ю 1 20 км 4/0
[Ac trans Ci fib]
+24.9 +9.6 38 +26 +26 жарко 1018.1 994.8
21 21.06 СЗ 1 20 км ясно +18.7 +10.5 59 +20 +20 1018.8 995.0
00 22.06 З 1 20 км 3/0
[Ac trans]
+15.1 +10.5 74 +16 +16 1019.7 995.6
03 22.06 штиль 0 20 км 8/0
[Ac trans]
+17.6 +11.5 67 +18 +19 1020.2 996.3 +13.9
06 22.06 штиль 0 20 км 6/0
[Ac cast]
+28.8 +10.2 31 +29 +38 жарко 1019.6 996.6
09 22.06 ЮЗ 2 20 км 5/5 600 м
[Cu med, cong]
+32.4 +6.7 20 +31 +39 жарко 1018.8 996.0
12 22.06 ЮЗ 2 20 км 5/5 600 м
[Cu med, cong]
+33.0 +6.0 19 +31 +37 жарко 1018.0 995.3
15 22.06 ЮЗ 2 20 км 4/4 600 м
[Sc diur, vesp]
+32.6 +7.6 21 +31 +32 жарко 1017.3 994.6 +33.8
18 22.06 ЮЗ 1 20 км ясно +25.5 +10.2 38 +26 +26 жарко 1018.0 994.8
21 22.06 З 1 20 км ясно +21.6 +8.9 44 +23 +23 комфорт 1018.6 995.0
00 23.06 штиль 0 20 км 8/8 600 м
[Sc]
+19.4 +11.3 59 +20 +20 1019.1 995.4
03 23.06 штиль 0 20 км 6/0
[Ac trans]
+21.0 +10.0 49 +22 +24 комфорт 1019.2 995.6 +18.4
06 23.06 З 3 20 км 5/0
[Ac trans]
+30.5 +10.1 28 +30 +37 жарко 1018.6 995.8
09 23.06 СЗ 3 20 км 6/6 600 м
[Cu hum]
+33.7 +6.6 19 +32 +38 жарко 1017.7 995.1
12 23.06 ЮЗ 2 20 км 8/8 600 м
[Cu hum]
+34.9 +7.2 18 +33 +35 жарко 1016.8 994.2
15 23.06 штиль 0 20 км 5/5 600 м
[Sc diur, vesp]
+33.4 +7.2 20 +32 +33 жарко 1016.0 993.4 +35.3
18 23.06 СВ 1 20 км 3/3 600 м
[Sc diur, vesp]
+25.6 +12.3 44 +27 +27 жарко 1016.8 993.6
21 23.06 СЗ 1 20 км 8/0
[Ac trans]
+22.5 +14.5 61 +26 +26 жарко 1017.1 993.7
00 24.06 З 1 20 км 8/0
[Ac trans]
+20.7 +13.8 65 +24 +24 комфорт 1017.0 993.4
03 24.06 Ю 1 20 км 9/0
[Ac trans]
+21.8 +15.6 68 +25 +27 комфорт 1016.9 993.5 +20.0
06 24.06 ЮЗ 2 20 км 9/0
[Ac trans]
+29.1 +15.4 43 +32 +37 душно 1016.4 993.5
09 24.06 З 3 20 км 9/8 600 м
[Cu med, cong Ci]
+34.7 +6.1 17 +32 +35 жарко 1015.3 992.7
12 24.06 ЮЗ 3 20 км 8/6 600 м
[Cu med, cong Ci fib]
+34.9 +6.7 18 +33 +36 жарко 1014.3 991.8
15 24.06 С 5
{10}
20 км 9/3 600 м
[Cu med, cong Ci]
+31.7 +12.4 31 +32 +33 жарко 1014.2 991.6 +35.5
18 24.06 С 1 20 км 8/0
[Ac trans Ci sp]
+25.0 +15.5 56 +28 +28 жарко 1015.9 992.7
21 24.06 С 4 20 км в посл. час дождь 5/0
[As trans]
+20.6 +17.8 84 +24 +24 комфорт 1017.0 993.4
00 25.06 С 3 20 км {дождь} 8/0
[Ac trans]
+19.5 +16.7 84 +22 +22 комфорт 1017.4 993.8
03 25.06 СВ 3 20 км 6/0
[Ci sp]
+19.0 +15.1 78 +20 +22 1018.7 995.0 +18.2 0.3
06 25.06 СВ 4
{10}
20 км 3/0
[Ci fib]
+23.3 +10.5 44 +25 +33 комфорт 1019.3 995.8
09 25.06 С 5-10
{10}
20 км 4/0
[Ac trans Ci fib]
+27.0 +8.5 31 +27 +34 жарко 1018.9 995.8
12 25.06 С 6-11
{11}
20 км 3/0
[Ci fib]
+27.4 +5.8 25 +26 +31 жарко 1019.0 995.9
15 25.06 С 5
{11}
20 км 4/0
[Ci fib]
+24.9 +6.3 30 +25 +26 комфорт 1019.7 996.3 +27.7
18 25.06 С 3 20 км 3/0
[Ci fib]
+19.1 +5.6 41 +20 +20 1021.3 997.5
21 25.06 С 3 20 км ясно +18.0 +5.9 45 +18 +18 1021.6 997.6
00 26.06 С 3 20 км ясно +15.1 +6.4 56 +15 +15 1022.4 998.2
03 26.06 С 3 20 км 8/0
[Ci fib]
+16.3 +7.6 56 +16 +18 1022.7 998.6 +13.9

 

Местоположение метеостанции Октябрьский Городок (Саратовская область, Россия): широта 51.63 долгота 45.45 высота над уровнем моря 201 м.

В архиве по умолчанию представлена погода в Октябрьском Городке за последнюю неделю. Архивные данные за месяц целиком и за предыдущие месяцы, начиная с января 2011 года, Вы можете получить, выбрав интересующий диапазон дат из раскрывающегося списка и нажав кнопку "Ввод!".


*Определитесь, кто Вы:
робот инопланетянин человек

Внимание! Время в таблицах - всемирное. Для получения местного времени необходимо прибавить поправку, которая равна 4 ч.

Смотрите также архив погоды в соседних городах и на ближайших метеорологических станциях:

Погода в Саратове ЮВ (Саратовская область, Россия) (39 км)
Погода в Аткарске (Саратовская область, Россия) (39 км)
Погода в Саратове (Саратовская область, Россия) (41 км)
Погода в Сплавнухе (Саратовская область, Россия) (62 км)
Погода в Калининске (Саратовская область, Россия) (68 км)
Погода в Петровске (Саратовская область, Россия) (72 км)
Погода в Маркс (Саратовская область, Россия) (89 км)
Погода в Карабулаке (Саратовская область, Россия) (100 км)
Погода в Рудне (Волгоградская область, Россия) (108 км)
Погода в Колышлее (Пензенская область, Россия) (128 км)

Пояснения к столбцам:

Ветер - указаны скорость ветра в м/с - средняя за 10 мин, порывы в срок и между сроками (в фигурных скобках) и направление, откуда дует ветер: С - северный, СВ - северо-восточный, В - восточный, ЮВ - юго-восточный, Ю - южный, ЮЗ - юго-западный, З - западный, СЗ - северо-западный.
Видимость - горизонтальная дальность видимости в метрах или километрах. При видимости от 1 до 10 км при отсутствии осадков обычно наблюдается дымка, при ухудшении видимости до 1 км и менее - туман. В сухую погоду видимость может ухудшаться дымом, пылью или мглою.
Явления - указаны атмосферные явления, наблюдавшиеся в срок или в последний час перед сроком; фигурными скобками обозначены явления, наблюдавшиеся между сроками (за 1-3 часа до срока); квадратными скобками обозначены град или гололедные отложения с указанием их диаметра в мм.
Облачность - указаны через наклонную черту общая и нижняя облачность в баллах и высота нижней границы облаков в метрах; квадратными скобками обозначены формы облаков: Ci - перистые, Cs - перисто-слоистые, Cc - перисто-кучевые, Ac - высококучевые, As - высокослоистые, Sc - слоисто-кучевые, Ns - слоисто-дождевые, Cu - кучевые, Cb - кучево-дождевые. Подробнее классификацию облаков см. в Атласе облаков (PDF).
T - Температура воздуха - температура, измеренная на высоте 2 м над землей.
Td - Температура точки росы - температура, при понижении до которой содержащийся в воздухе водяной пар достигнет насыщения.
f - Относительная влажность воздуха - влажноcть воздуха, измеренная на высоте 2 м над землей.
Te - Эффективная температура - температура, которую ощущает одетый по сезону человек в тени. Характеристика душности погоды. При расчете учитывается влияние влажности воздуха и скорости ветра на теплоощущения человека.
Tes - Эффективная температура на солнце - температура, которую ощущает человек, с поправкой на солнечный нагрев. Характеристика знойности погоды. Зависит от высоты солнца над горизонтом, облачности и скорости ветра. Ночью, в пасмурную погоду, а также при ветре 12 м/с и более поправка равна нулю.
P - Атмосферное давление - приведенное к уровню моря атмосферное давление.
Po - Атмосферное давление - измеренное на уровне метеостанции атмосферное давление.
Tmin - Минимальная температура - минимум температуры воздуха на высоте 2 м над землей.
Tmax - Максимальная температура - максимум температуры воздуха на высоте 2 м над землей.
R - Количество осадков - Количество выпавших осадков за период времени, мм. При наведении курсора мыши на число - период времени, за который выпало указанное количество осадков.
R24 - Количество осадков - Количество выпавших осадков за 24 часа, мм.
S - Снежный покров - Высота снежного покрова, см. При наведении курсора мыши на число - состояние снежного покрова и степень покрытия местности в баллах.